DW1345 Weather Reports


time (UTC)temp
C
wind
direction
speed
KPH
gust
KPH
rain 1hr
cm
rain 24hr
cm
rain mn
cm
humidity
%
barometer
mb
20260507181555 5 293 1.6 0.0 0.00 0.00 0.15 80 1016.1
20260507180057 5 308 1.6 0.0 0.00 0.00 0.15 79 1015.7
20260507174600 5 289 1.6 0.0 0.00 0.00 0.15 77 1015.9
20260507173128 5 239 3.2 0.0 0.00 0.00 0.15 76 1015.6
20260507171551 6 227 3.2 0.0 0.00 0.00 0.15 74 1015.6
20260507170053 6 229 4.8 0.0 0.00 0.00 0.15 74 1015.5
20260507164557 7 228 3.2 0.0 0.00 0.00 0.15 74 1015.5
20260507163049 6 240 3.2 0.0 0.00 0.00 0.15 76 1015.3
20260507161603 6 306 3.2 0.0 0.00 0.00 0.15 80 1015.3
20260507154548 5 299 4.8 0.0 0.00 0.00 0.15 80 1015.5
20260507153047 5 299 4.8 0.0 0.00 0.00 0.15 79 1015.4
20260507151546 5 252 11.3 0.0 0.00 0.00 0.15 79 1015.4
20260507150045 5 199 4.8 0.0 0.00 0.00 0.15 78 1015.3
20260507144556 5 254 4.8 0.0 0.00 0.00 0.15 78 1015.3
20260507143045 5 279 8.0 0.0 0.00 0.00 0.15 78 1015.1
20260507141542 6 258 8.0 0.0 0.00 0.00 0.15 78 1015.0
20260507140042 6 216 6.4 0.0 0.00 0.00 0.15 77 1014.8
20260507134539 6 249 4.8 0.0 0.00 0.00 0.15 75 1014.6
20260507133040 7 280 4.8 0.0 0.00 0.00 0.15 73 1014.5
20260507131537 8 242 6.4 0.0 0.00 0.00 0.15 74 1014.6
20260507130039 7 224 6.4 0.0 0.00 0.00 0.15 76 1014.4
20260507124531 7 255 8.0 0.0 0.00 0.00 0.15 75 1014.4
20260507123039 6 243 6.4 0.0 0.00 0.00 0.15 78 1014.3
20260507121529 6 246 4.8 0.0 0.00 0.00 0.15 83 1014.3
20260507120029 5 304 3.2 0.0 0.00 0.00 0.15 86 1014.4
20260507114527 4 296 1.6 0.0 0.00 0.00 0.15 86 1014.2
20260507113028 4 277 9.7 0.0 0.00 0.00 0.15 83 1014.1
20260507111525 5 244 9.7 0.0 0.00 0.00 0.13 81 1013.7
20260507110029 6 252 1.6 0.0 0.00 0.00 0.13 79 1013.5
20260507104523 5 182 3.2 0.0 0.00 0.00 0.13 83 1013.5
20260507103023 6 191 6.4 0.0 0.00 0.00 0.08 78 1013.5
20260507101520 6 236 6.4 0.0 0.00 0.00 0.08 81 1013.3
20260507100022 6 227 3.2 0.0 0.00 0.00 0.08 77 1013.3
20260507094520 6 192 4.8 0.0 0.00 0.00 0.08 76 1013.1
20260507093015 6 276 4.8 0.0 0.00 0.00 0.08 73 1013.0
20260507091513 7 248 3.2 0.0 0.00 0.00 0.08 71 1013.0
20260507090013 7 194 3.2 0.0 0.00 0.00 0.08 73 1012.8
20260507084513 6 212 3.2 0.0 0.00 0.00 0.08 74 1012.6
20260507083006 7 291 1.6 0.0 0.00 0.00 0.08 70 1012.5
20260507081504 7 277 0.0 0.0 0.00 0.00 0.08 69 1012.3
20260507080001 6 277 0.0 0.0 0.00 0.00 0.08 73 1012.3
20260507074601 5 280 1.6 0.0 0.00 0.00 0.08 74 1012.2
20260507073057 5 280 1.6 0.0 0.00 0.00 0.08 73 1012.0
20260507071554 6 266 1.6 0.0 0.00 0.00 0.08 74 1011.9
20260507070055 6 238 0.0 0.0 0.00 0.00 0.08 74 1011.8
20260507064606 6 236 0.0 0.0 0.00 0.00 0.08 76 1011.7
20260507063052 6 126 3.2 0.0 0.00 0.00 0.08 76 1011.5
20260507061545 5 137 4.8 0.0 0.00 0.00 0.08 76 1011.5
20260507060043 5 125 3.2 0.0 0.00 0.00 0.08 78 1011.5
20260507054543 5 121 6.4 0.0 0.00 0.00 0.08 80 1011.3
20260507053039 5 143 1.6 0.0 0.00 0.00 0.08 82 1011.1
20260507051535 3 136 6.4 0.0 0.00 0.00 0.08 84 1010.9
20260507050039 3 112 3.2 0.0 0.00 0.00 0.08 86 1011.0
20260507044531 3 80 3.2 0.0 0.00 0.00 0.08 88 1010.9
20260507043029 3 105 3.2 0.0 0.00 0.00 0.08 89 1010.8
20260507041545 3 72 3.2 0.0 0.00 0.00 0.08 91 1010.7
20260507040024 2 126 6.4 0.0 0.00 0.00 0.08 92 1010.6
20260507034522 2 107 6.4 0.0 0.00 0.00 0.08 92 1010.6
20260507033020 2 126 8.0 0.0 0.00 0.00 0.08 93 1010.6
20260507031518 2 124 4.8 0.0 0.00 0.00 0.08 93 1010.5
20260507030016 2 90 1.6 0.0 0.00 0.00 0.08 93 1010.2
20260507024516 2 119 4.8 0.0 0.00 0.00 0.08 93 1010.3
20260507023015 2 101 3.2 0.0 0.00 0.00 0.08 94 1010.5
20260507021514 1 63 1.6 0.0 0.00 0.00 0.08 93 1010.4
20260507020013 1 63 1.6 0.0 0.00 0.00 0.08 93 1010.3
20260507014523 1 64 4.8 0.0 0.00 0.00 0.08 93 1010.3
20260507013029 1 90 0.0 0.0 0.00 0.00 0.08 93 1010.2
20260507011513 1 53 0.0 0.0 0.00 0.00 0.08 93 1010.2
20260507010007 1 53 0.0 0.0 0.00 0.00 0.08 93 1010.2
20260507004505 1 53 0.0 0.0 0.00 0.00 0.08 93 1010.1
20260507003004 1 53 1.6 0.0 0.00 0.00 0.08 93 1010.1
20260507001503 1 53 1.6 0.0 0.00 0.00 0.08 92 1010.0
20260507000005 1 54 1.6 0.0 0.00 0.00 0.08 92 1010.0
20260506234600 1 54 3.2 0.0 0.00 0.00 0.08 92 1009.9
20260506233107 1 80 3.2 0.0 0.00 0.00 0.08 92 1009.8
20260506231555 2 117 0.0 0.0 0.00 0.00 0.08 92 1009.7
20260506230054 2 117 0.0 0.0 0.00 0.00 0.05 92 1009.6
20260506224553 2 125 0.0 0.0 0.00 0.00 0.05 92 1009.6
20260506223105 2 125 0.0 0.0 0.00 0.00 0.05 92 1009.6
20260506221549 2 125 0.0 0.0 0.00 0.00 0.03 91 1009.6
20260506220047 2 125 0.0 0.0 0.00 0.00 0.00 91 1009.4
20260506214546 2 125 0.0 0.0 0.00 0.00 0.23 91 1009.6
20260506213044 2 127 0.0 0.0 0.00 0.00 0.23 91 1009.3
20260506211546 2 127 0.0 0.0 0.00 0.00 0.23 91 1009.4
20260506210045 2 121 0.0 0.0 0.00 0.00 0.18 91 1009.4
20260506204541 2 120 4.8 0.0 0.00 0.00 0.15 91 1009.0
20260506203044 2 103 3.2 0.0 0.00 0.00 0.15 91 1009.0
20260506201539 3 129 3.2 0.0 0.00 0.00 0.15 91 1009.0
20260506200056 3 114 0.0 0.0 0.00 0.00 0.15 91 1008.8
20260506194539 3 125 0.0 0.0 0.00 0.00 0.15 91 1008.9
20260506193036 3 127 1.6 0.0 0.00 0.00 0.13 91 1008.7
20260506191536 3 62 0.0 0.0 0.00 0.00 0.13 91 1008.6
20260506190035 2 57 3.2 0.0 0.00 0.00 0.13 91 1008.4
20260506184533 3 59 1.6 0.0 0.00 0.00 0.13 91 1008.3
20260506183033 2 62 0.0 0.0 0.00 0.00 0.10 91 1008.2